Time,TemperatureF,DewpointF,PressureIn,WindDirection,WindDirectionDegrees,WindSpeedMPH,WindSpeedGustMPH,Humidity,HourlyPrecipIn,Conditions,Clouds,dailyrainin,SoftwareType,DateUTC
2013-01-13 00:03:00,40.0,34.6,30.19,NW,315,0.0,1.0,81,0.00,,,0.00,Weather View 32 v70,2013-01-13 08:03:00,
2013-01-13 00:08:00,40.0,34.6,30.19,NNE,22,0.0,1.0,81,0.00,,,0.00,Weather View 32 v70,2013-01-13 08:08:00,
2013-01-13 00:13:00,40.0,34.6,30.19,NNE,22,0.0,1.0,81,0.00,,,0.00,Weather View 32 v70,2013-01-13 08:13:00,
2013-01-13 00:18:00,39.0,33.7,30.19,NNE,22,0.0,1.0,81,0.00,,,0.00,Weather View 32 v70,2013-01-13 08:18:00,
2013-01-13 00:23:00,39.0,33.7,30.19,NNE,22,0.0,1.0,81,0.00,,,0.00,Weather View 32 v70,2013-01-13 08:23:00,
2013-01-13 00:28:00,39.0,33.7,30.19,NNE,22,0.0,1.0,81,0.00,,,0.00,Weather View 32 v70,2013-01-13 08:28:00,
2013-01-13 00:33:00,39.0,34.3,30.19,NNE,22,0.0,1.0,83,0.00,,,0.00,Weather View 32 v70,2013-01-13 08:33:00,
2013-01-13 00:38:00,39.0,33.7,30.19,NNE,22,0.0,1.0,81,0.00,,,0.00,Weather View 32 v70,2013-01-13 08:38:00,
2013-01-13 00:43:00,38.0,32.7,30.19,NE,45,0.0,1.0,81,0.00,,,0.00,Weather View 32 v70,2013-01-13 08:43:00,
2013-01-13 00:48:00,39.0,33.7,30.19,ENE,67,0.0,1.0,81,0.00,,,0.00,Weather View 32 v70,2013-01-13 08:48:00,
2013-01-13 00:50:00,39.0,33.7,30.19,ENE,67,0.0,1.0,81,0.00,,,0.00,Weather View 32 v70,2013-01-13 08:50:00,
2013-01-13 00:53:00,39.0,33.7,30.19,NE,45,0.0,3.0,81,0.00,,,0.00,Weather View 32 v70,2013-01-13 08:53:00,
2013-01-13 00:58:00,39.0,33.7,30.19,NNE,22,0.0,3.0,81,0.00,,,0.00,Weather View 32 v70,2013-01-13 08:58:00,
2013-01-13 01:03:00,39.0,34.0,30.19,NNE,22,0.0,3.0,82,0.00,,,0.00,Weather View 32 v70,2013-01-13 09:03:00,
2013-01-13 01:08:00,39.0,33.7,30.19,NNE,22,0.0,3.0,81,0.00,,,0.00,Weather View 32 v70,2013-01-13 09:08:00,
2013-01-13 01:13:00,38.0,33.0,30.19,NNE,22,0.0,3.0,82,0.00,,,0.00,Weather View 32 v70,2013-01-13 09:13:00,
2013-01-13 01:18:00,39.0,34.0,30.19,NNE,22,0.0,3.0,82,0.00,,,0.00,Weather View 32 v70,2013-01-13 09:18:00,
2013-01-13 01:23:00,39.0,34.0,30.19,NNE,22,0.0,3.0,82,0.00,,,0.00,Weather View 32 v70,2013-01-13 09:23:00,
2013-01-13 01:28:00,38.0,33.0,30.19,NNE,22,0.0,3.0,82,0.00,,,0.00,Weather View 32 v70,2013-01-13 09:28:00,
2013-01-13 01:33:00,38.0,33.0,30.19,WSW,247,0.0,3.0,82,0.00,,,0.00,Weather View 32 v70,2013-01-13 09:33:00,
2013-01-13 01:38:00,38.0,33.0,30.19,WSW,247,0.0,3.0,82,0.00,,,0.00,Weather View 32 v70,2013-01-13 09:38:00,
2013-01-13 01:43:00,39.0,33.7,30.19,WSW,247,0.0,3.0,81,0.00,,,0.00,Weather View 32 v70,2013-01-13 09:43:00,
2013-01-13 01:48:00,39.0,34.0,30.19,WSW,247,0.0,3.0,82,0.00,,,0.00,Weather View 32 v70,2013-01-13 09:48:00,
2013-01-13 01:50:00,39.0,34.0,30.19,WSW,247,0.0,3.0,82,0.00,,,0.00,Weather View 32 v70,2013-01-13 09:50:00,
2013-01-13 01:53:00,38.0,33.0,30.19,WSW,247,0.0,2.0,82,0.00,,,0.00,Weather View 32 v70,2013-01-13 09:53:00,
2013-01-13 01:58:00,38.0,33.0,30.20,WSW,247,0.0,2.0,82,0.00,,,0.00,Weather View 32 v70,2013-01-13 09:58:00,
2013-01-13 02:03:00,37.0,32.0,30.20,WSW,247,0.0,2.0,82,0.00,,,0.00,Weather View 32 v70,2013-01-13 10:03:00,
2013-01-13 02:08:00,37.0,32.3,30.21,NNE,22,0.0,2.0,83,0.00,,,0.00,Weather View 32 v70,2013-01-13 10:08:00,
2013-01-13 02:13:00,37.0,32.3,30.22,NNE,22,0.0,2.0,83,0.00,,,0.00,Weather View 32 v70,2013-01-13 10:13:00,
2013-01-13 02:18:00,38.0,33.0,30.21,NNE,22,0.0,2.0,82,0.00,,,0.00,Weather View 32 v70,2013-01-13 10:18:00,
2013-01-13 02:23:00,38.0,33.0,30.21,NNE,22,0.0,2.0,82,0.00,,,0.00,Weather View 32 v70,2013-01-13 10:23:00,
2013-01-13 02:28:00,37.0,32.3,30.21,NNE,22,0.0,2.0,83,0.00,,,0.00,Weather View 32 v70,2013-01-13 10:28:00,
2013-01-13 02:33:00,37.0,32.3,30.21,NNE,22,0.0,1.0,83,0.00,,,0.00,Weather View 32 v70,2013-01-13 10:33:00,
2013-01-13 02:38:00,37.0,32.3,30.21,NW,315,0.0,1.0,83,0.00,,,0.00,Weather View 32 v70,2013-01-13 10:38:00,
2013-01-13 02:43:00,38.0,33.0,30.21,WSW,247,0.0,1.0,82,0.00,,,0.00,Weather View 32 v70,2013-01-13 10:43:00,
2013-01-13 02:51:00,38.0,33.0,30.20,WSW,247,0.0,1.0,82,0.00,,,0.00,Weather View 32 v70,2013-01-13 10:51:00,
2013-01-13 02:58:00,37.0,32.0,30.20,WSW,247,0.0,1.0,82,0.00,,,0.00,Weather View 32 v70,2013-01-13 10:58:00,
2013-01-13 03:03:00,37.0,32.3,30.21,WSW,247,0.0,1.0,83,0.00,,,0.00,Weather View 32 v70,2013-01-13 11:03:00,
2013-01-13 03:08:00,37.0,32.3,30.21,WSW,247,0.0,1.0,83,0.00,,,0.00,Weather View 32 v70,2013-01-13 11:08:00,
2013-01-13 03:13:00,37.0,32.3,30.21,WSW,247,0.0,1.0,83,0.00,,,0.00,Weather View 32 v70,2013-01-13 11:13:00,
2013-01-13 03:18:00,37.0,32.3,30.21,WSW,247,0.0,0.0,83,0.00,,,0.00,Weather View 32 v70,2013-01-13 11:18:00,
2013-01-13 03:23:00,37.0,32.3,30.20,WSW,247,0.0,0.0,83,0.00,,,0.00,Weather View 32 v70,2013-01-13 11:23:00,
2013-01-13 03:28:00,36.0,31.3,30.21,WSW,247,0.0,0.0,83,0.00,,,0.00,Weather View 32 v70,2013-01-13 11:28:00,
2013-01-13 03:33:00,36.0,31.3,30.21,WSW,247,0.0,0.0,83,0.00,,,0.00,Weather View 32 v70,2013-01-13 11:33:00,
2013-01-13 03:38:00,35.0,30.4,30.21,WSW,247,0.0,0.0,83,0.00,,,0.00,Weather View 32 v70,2013-01-13 11:38:00,
2013-01-13 03:43:00,35.0,30.4,30.22,WSW,247,0.0,0.0,83,0.00,,,0.00,Weather View 32 v70,2013-01-13 11:43:00,
2013-01-13 03:48:00,35.0,30.4,30.22,WSW,247,0.0,0.0,83,0.00,,,0.00,Weather View 32 v70,2013-01-13 11:48:00,
2013-01-13 03:51:00,35.0,30.4,30.22,WSW,247,0.0,0.0,83,0.00,,,0.00,Weather View 32 v70,2013-01-13 11:51:00,
2013-01-13 03:58:00,36.0,31.0,30.22,WSW,247,0.0,0.0,82,0.00,,,0.00,Weather View 32 v70,2013-01-13 11:58:00,
2013-01-13 04:03:00,36.0,31.0,30.21,WSW,247,0.0,0.0,82,0.00,,,0.00,Weather View 32 v70,2013-01-13 12:03:00,
2013-01-13 04:08:00,35.0,30.1,30.21,WSW,247,0.0,0.0,82,0.00,,,0.00,Weather View 32 v70,2013-01-13 12:08:00,
2013-01-13 04:13:00,35.0,30.7,30.22,WSW,247,0.0,0.0,84,0.00,,,0.00,Weather View 32 v70,2013-01-13 12:13:00,
2013-01-13 04:18:00,34.0,29.1,30.22,WSW,247,0.0,0.0,82,0.00,,,0.00,Weather View 32 v70,2013-01-13 12:18:00,
2013-01-13 04:23:00,35.0,30.1,30.22,WSW,247,0.0,0.0,82,0.00,,,0.00,Weather View 32 v70,2013-01-13 12:23:00,
2013-01-13 04:28:00,35.0,30.1,30.21,WSW,247,0.0,0.0,82,0.00,,,0.00,Weather View 32 v70,2013-01-13 12:28:00,
2013-01-13 04:33:00,35.0,30.4,30.21,WSW,247,0.0,0.0,83,0.00,,,0.00,Weather View 32 v70,2013-01-13 12:33:00,
2013-01-13 04:38:00,35.0,30.4,30.21,WSW,247,0.0,0.0,83,0.00,,,0.00,Weather View 32 v70,2013-01-13 12:38:00,
2013-01-13 04:43:00,34.0,29.7,30.21,WSW,247,0.0,0.0,84,0.00,,,0.00,Weather View 32 v70,2013-01-13 12:43:00,
2013-01-13 04:48:00,34.0,29.4,30.21,WSW,247,0.0,0.0,83,0.00,,,0.00,Weather View 32 v70,2013-01-13 12:48:00,
2013-01-13 04:53:00,34.0,29.1,30.21,WSW,247,0.0,0.0,82,0.00,,,0.00,Weather View 32 v70,2013-01-13 12:53:00,
2013-01-13 04:54:00,34.0,28.8,30.22,ENE,67,0.0,0.0,81,0.00,,,0.00,Weather View 32 v70,2013-01-13 12:54:00,
2013-01-13 04:59:00,34.0,27.9,30.21,ENE,67,0.0,0.0,78,0.00,,,0.00,Weather View 32 v70,2013-01-13 12:59:00,
2013-01-13 05:04:00,34.0,27.9,30.21,ENE,67,0.0,0.0,78,0.00,,,0.00,Weather View 32 v70,2013-01-13 13:04:00,
2013-01-13 05:09:00,34.0,28.2,30.22,ENE,67,0.0,0.0,79,0.00,,,0.00,Weather View 32 v70,2013-01-13 13:09:00,
2013-01-13 05:14:00,34.0,28.2,30.23,ENE,67,0.0,0.0,79,0.00,,,0.00,Weather View 32 v70,2013-01-13 13:14:00,
2013-01-13 05:19:00,34.0,28.5,30.23,ENE,67,0.0,0.0,80,0.00,,,0.00,Weather View 32 v70,2013-01-13 13:19:00,
2013-01-13 05:24:00,34.0,28.8,30.23,ENE,67,0.0,0.0,81,0.00,,,0.00,Weather View 32 v70,2013-01-13 13:24:00,
2013-01-13 05:29:00,34.0,28.5,30.22,ENE,67,0.0,0.0,80,0.00,,,0.00,Weather View 32 v70,2013-01-13 13:29:00,
2013-01-13 05:38:00,34.0,27.9,30.23,ENE,67,0.0,0.0,78,0.00,,,0.00,Weather View 32 v70,2013-01-13 13:38:00,
2013-01-13 05:43:00,34.0,28.2,30.23,ESE,112,0.0,0.0,79,0.00,,,0.00,Weather View 32 v70,2013-01-13 13:43:00,
2013-01-13 05:48:00,34.0,28.2,30.23,ESE,112,0.0,0.0,79,0.00,,,0.00,Weather View 32 v70,2013-01-13 13:48:00,
2013-01-13 05:53:00,34.0,28.2,30.23,ESE,112,0.0,0.0,79,0.00,,,0.00,Weather View 32 v70,2013-01-13 13:53:00,
2013-01-13 05:54:00,33.0,27.2,30.23,ESE,112,0.0,0.0,79,0.00,,,0.00,Weather View 32 v70,2013-01-13 13:54:00,
2013-01-13 06:04:00,32.0,25.6,30.23,ESE,112,0.0,0.0,77,0.00,,,0.00,Weather View 32 v70,2013-01-13 14:04:00,
2013-01-13 06:08:00,32.0,25.6,30.24,ESE,112,0.0,0.0,77,0.00,,,0.00,Weather View 32 v70,2013-01-13 14:08:00,
2013-01-13 06:13:00,32.0,26.2,30.24,ESE,112,0.0,0.0,79,0.00,,,0.00,Weather View 32 v70,2013-01-13 14:13:00,
2013-01-13 06:18:00,32.0,26.5,30.24,ESE,112,0.0,0.0,80,0.00,,,0.00,Weather View 32 v70,2013-01-13 14:18:00,
2013-01-13 06:23:00,32.0,26.5,30.24,ESE,112,0.0,0.0,80,0.00,,,0.00,Weather View 32 v70,2013-01-13 14:23:00,
2013-01-13 06:28:00,33.0,28.1,30.24,ESE,112,0.0,0.0,82,0.00,,,0.00,Weather View 32 v70,2013-01-13 14:28:00,
2013-01-13 06:38:00,33.0,27.5,30.24,NE,45,0.0,0.0,80,0.00,,,0.00,Weather View 32 v70,2013-01-13 14:38:00,
2013-01-13 06:43:00,34.0,27.5,30.23,ENE,67,0.0,2.0,77,0.00,,,0.00,Weather View 32 v70,2013-01-13 14:43:00,
2013-01-13 06:48:00,34.0,27.2,30.23,ENE,67,0.0,2.0,76,0.00,,,0.00,Weather View 32 v70,2013-01-13 14:48:00,
2013-01-13 06:54:00,33.0,25.6,30.24,ENE,67,0.0,2.0,74,0.00,,,0.00,Weather View 32 v70,2013-01-13 14:54:00,
2013-01-13 06:58:00,33.0,24.6,30.25,ENE,67,0.0,2.0,71,0.00,,,0.00,Weather View 32 v70,2013-01-13 14:58:00,
2013-01-13 07:03:00,33.0,23.9,30.25,ENE,67,0.0,2.0,69,0.00,,,0.00,Weather View 32 v70,2013-01-13 15:03:00,
2013-01-13 07:08:00,34.0,24.2,30.24,ENE,67,0.0,2.0,67,0.00,,,0.00,Weather View 32 v70,2013-01-13 15:08:00,
2013-01-13 07:13:00,34.0,23.8,30.25,NE,45,0.0,2.0,66,0.00,,,0.00,Weather View 32 v70,2013-01-13 15:13:00,
2013-01-13 07:18:00,34.0,22.0,30.25,NNE,22,0.0,2.0,61,0.00,,,0.00,Weather View 32 v70,2013-01-13 15:18:00,
2013-01-13 07:23:00,34.0,23.8,30.25,NNE,22,0.0,2.0,66,0.00,,,0.00,Weather View 32 v70,2013-01-13 15:23:00,
2013-01-13 07:28:00,34.0,23.5,30.25,NNE,22,0.0,2.0,65,0.00,,,0.00,Weather View 32 v70,2013-01-13 15:28:00,
2013-01-13 07:33:00,33.0,22.1,30.25,NNE,22,0.0,2.0,64,0.00,,,0.00,Weather View 32 v70,2013-01-13 15:33:00,
2013-01-13 07:38:00,33.0,20.6,30.25,NNE,22,0.0,2.0,60,0.00,,,0.00,Weather View 32 v70,2013-01-13 15:38:00,
2013-01-13 07:43:00,33.0,20.2,30.25,NNE,22,0.0,2.0,59,0.00,,,0.00,Weather View 32 v70,2013-01-13 15:43:00,
2013-01-13 07:48:00,34.0,20.8,30.25,NNE,22,0.0,1.0,58,0.00,,,0.00,Weather View 32 v70,2013-01-13 15:48:00,
2013-01-13 07:53:00,35.0,-56.4,30.24,NNE,22,0.0,1.0,1,0.00,,,0.00,Weather View 32 v70,2013-01-13 15:53:00,
2013-01-13 07:58:00,36.0,21.8,30.24,NNE,22,0.0,1.0,56,0.00,,,0.00,Weather View 32 v70,2013-01-13 15:58:00,
2013-01-13 08:03:00,37.0,22.3,30.23,NNE,22,0.0,1.0,55,0.00,,,0.00,Weather View 32 v70,2013-01-13 16:03:00,
2013-01-13 08:08:00,39.0,24.2,30.22,ESE,112,0.0,1.0,55,0.00,,,0.00,Weather View 32 v70,2013-01-13 16:08:00,
2013-01-13 08:13:00,40.0,25.1,30.22,ESE,112,0.0,1.0,55,0.00,,,0.00,Weather View 32 v70,2013-01-13 16:13:00,
2013-01-13 08:18:00,40.0,24.2,30.22,SE,135,0.0,0.0,53,0.00,,,0.00,Weather View 32 v70,2013-01-13 16:18:00,
2013-01-13 08:23:00,41.0,25.2,30.22,SE,135,0.0,0.0,53,0.00,,,0.00,Weather View 32 v70,2013-01-13 16:23:00,
2013-01-13 08:28:00,42.0,-52.1,30.23,East,90,0.0,2.0,1,0.00,,,0.00,Weather View 32 v70,2013-01-13 16:28:00,
2013-01-13 08:33:00,42.0,25.6,30.23,East,90,0.0,2.0,52,0.00,,,0.00,Weather View 32 v70,2013-01-13 16:33:00,
2013-01-13 08:43:00,43.0,26.6,30.23,East,90,0.0,3.0,52,0.00,,,0.00,Weather View 32 v70,2013-01-13 16:43:00,
2013-01-13 08:48:00,43.0,26.1,30.23,North,360,0.0,3.0,51,0.00,,,0.00,Weather View 32 v70,2013-01-13 16:48:00,
2013-01-13 08:53:00,43.0,26.1,30.23,North,360,0.0,5.0,51,0.00,,,0.00,Weather View 32 v70,2013-01-13 16:53:00,
2013-01-13 08:55:00,43.0,26.1,30.23,North,360,0.0,5.0,51,0.00,,,0.00,Weather View 32 v70,2013-01-13 16:55:00,
2013-01-13 09:03:00,43.0,-51.5,30.23,North,360,2.0,5.0,1,0.00,,,0.00,Weather View 32 v70,2013-01-13 17:03:00,
2013-01-13 09:08:00,42.0,26.1,30.23,North,360,2.0,5.0,53,0.00,,,0.00,Weather View 32 v70,2013-01-13 17:08:00,
2013-01-13 09:13:00,42.0,25.6,30.23,North,360,3.0,5.0,52,0.00,,,0.00,Weather View 32 v70,2013-01-13 17:13:00,
2013-01-13 09:18:00,43.0,-51.5,30.23,East,90,1.0,5.0,1,0.00,,,0.00,Weather View 32 v70,2013-01-13 17:18:00,
2013-01-13 09:23:00,43.0,25.6,30.23,SE,135,0.0,5.0,50,0.00,,,0.00,Weather View 32 v70,2013-01-13 17:23:00,
2013-01-13 09:28:00,44.0,26.5,30.23,East,90,1.0,5.0,50,0.00,,,0.00,Weather View 32 v70,2013-01-13 17:28:00,
2013-01-13 09:33:00,44.0,26.5,30.23,East,90,0.0,5.0,50,0.00,,,0.00,Weather View 32 v70,2013-01-13 17:33:00,
2013-01-13 09:38:00,45.0,27.5,30.23,SE,135,0.0,5.0,50,0.00,,,0.00,Weather View 32 v70,2013-01-13 17:38:00,
2013-01-13 09:43:00,46.0,27.9,30.22,SE,135,0.0,5.0,49,0.00,,,0.00,Weather View 32 v70,2013-01-13 17:43:00,
2013-01-13 09:48:00,46.0,28.4,30.21,East,90,0.0,5.0,50,0.00,,,0.00,Weather View 32 v70,2013-01-13 17:48:00,
2013-01-13 09:53:00,46.0,-49.6,30.22,ESE,112,4.0,5.0,1,0.00,,,0.00,Weather View 32 v70,2013-01-13 17:53:00,
2013-01-13 09:58:00,45.0,27.0,30.22,SE,135,5.0,6.0,49,0.00,,,0.00,Weather View 32 v70,2013-01-13 17:58:00,
2013-01-13 10:03:00,45.0,27.5,30.22,SE,135,2.0,9.0,50,0.00,,,0.00,Weather View 32 v70,2013-01-13 18:03:00,
2013-01-13 10:08:00,45.0,27.5,30.22,SE,135,0.0,9.0,50,0.00,,,0.00,Weather View 32 v70,2013-01-13 18:08:00,
2013-01-13 10:13:00,45.0,27.5,30.22,WNW,292,0.0,9.0,50,0.00,,,0.00,Weather View 32 v70,2013-01-13 18:13:00,
2013-01-13 10:18:00,46.0,27.9,30.22,East,90,0.0,9.0,49,0.00,,,0.00,Weather View 32 v70,2013-01-13 18:18:00,
2013-01-13 10:23:00,46.0,27.9,30.21,SW,225,0.0,9.0,49,0.00,,,0.00,Weather View 32 v70,2013-01-13 18:23:00,
2013-01-13 10:28:00,46.0,-49.6,30.21,East,90,2.0,9.0,1,0.00,,,0.00,Weather View 32 v70,2013-01-13 18:28:00,
2013-01-13 10:35:00,46.0,28.4,30.21,SE,135,2.0,9.0,50,0.00,,,0.00,Weather View 32 v70,2013-01-13 18:35:00,
2013-01-13 13:48:00,53.0,29.9,30.14,East,90,2.0,5.0,41,0.00,,,0.00,Weather View 32 v70,2013-01-13 21:48:00,
2013-01-13 13:58:00,53.0,-45.3,30.14,North,360,1.0,6.0,1,0.00,,,0.00,Weather View 32 v70,2013-01-13 21:58:00,
2013-01-13 14:02:00,53.0,29.9,30.14,East,90,0.0,6.0,41,0.00,,,0.00,Weather View 32 v70,2013-01-13 22:02:00,
2013-01-13 14:07:00,53.0,29.3,30.13,SE,135,0.0,6.0,40,0.00,,,0.00,Weather View 32 v70,2013-01-13 22:07:00,
2013-01-13 14:12:00,52.0,28.4,30.14,North,360,0.0,7.0,40,0.00,,,0.00,Weather View 32 v70,2013-01-13 22:12:00,
2013-01-13 14:22:00,53.0,30.5,30.14,East,90,0.0,7.0,42,0.00,,,0.00,Weather View 32 v70,2013-01-13 22:22:00,
2013-01-13 14:27:00,53.0,29.3,30.14,WNW,292,1.0,7.0,40,0.00,,,0.00,Weather View 32 v70,2013-01-13 22:27:00,
2013-01-13 14:32:00,53.0,-45.3,30.14,NW,315,1.0,7.0,1,0.00,,,0.00,Weather View 32 v70,2013-01-13 22:32:00,
2013-01-13 14:37:00,53.0,29.3,30.14,North,360,0.0,7.0,40,0.00,,,0.00,Weather View 32 v70,2013-01-13 22:37:00,
2013-01-13 14:42:00,54.0,30.2,30.13,East,90,2.0,7.0,40,0.00,,,0.00,Weather View 32 v70,2013-01-13 22:42:00,
2013-01-13 14:45:00,54.0,30.2,30.13,East,90,2.0,7.0,40,0.00,,,0.00,Weather View 32 v70,2013-01-13 22:45:00,
2013-01-13 14:54:00,53.0,-45.3,30.14,North,360,6.0,7.0,1,0.00,,,0.00,Weather View 32 v70,2013-01-13 22:54:00,
2013-01-13 14:59:00,52.0,28.4,30.14,WSW,247,0.0,7.0,40,0.00,,,0.00,Weather View 32 v70,2013-01-13 22:59:00,
2013-01-13 15:04:00,52.0,28.4,30.14,North,360,3.0,7.0,40,0.00,,,0.00,Weather View 32 v70,2013-01-13 23:04:00,
2013-01-13 15:08:00,53.0,29.3,30.14,North,360,2.0,7.0,40,0.00,,,0.00,Weather View 32 v70,2013-01-13 23:08:00,
2013-01-13 15:13:00,53.0,29.9,30.14,West,270,2.0,7.0,41,0.00,,,0.00,Weather View 32 v70,2013-01-13 23:13:00,
2013-01-13 15:18:00,52.0,28.4,30.13,North,360,2.0,7.0,40,0.00,,,0.00,Weather View 32 v70,2013-01-13 23:18:00,
2013-01-13 15:23:00,52.0,28.4,30.14,East,90,0.0,7.0,40,0.00,,,0.00,Weather View 32 v70,2013-01-13 23:23:00,
2013-01-13 15:28:00,53.0,-45.3,30.13,WNW,292,0.0,7.0,1,0.00,,,0.00,Weather View 32 v70,2013-01-13 23:28:00,
2013-01-13 15:33:00,52.0,28.4,30.13,North,360,0.0,7.0,40,0.00,,,0.00,Weather View 32 v70,2013-01-13 23:33:00,
2013-01-13 15:38:00,52.0,29.0,30.14,NW,315,0.0,7.0,41,0.00,,,0.00,Weather View 32 v70,2013-01-13 23:38:00,
2013-01-13 15:43:00,53.0,29.9,30.14,WNW,292,0.0,7.0,41,0.00,,,0.00,Weather View 32 v70,2013-01-13 23:43:00,
2013-01-13 15:47:00,53.0,29.9,30.14,WNW,292,0.0,7.0,41,0.00,,,0.00,Weather View 32 v70,2013-01-13 23:47:00,
2013-01-13 15:48:00,53.0,29.9,30.14,West,270,0.0,7.0,41,0.00,,,0.00,Weather View 32 v70,2013-01-13 23:48:00,
2013-01-13 15:53:00,53.0,29.9,30.13,WSW,247,0.0,7.0,41,0.00,,,0.00,Weather View 32 v70,2013-01-13 23:53:00,
2013-01-13 15:58:00,53.0,30.5,30.13,East,90,2.0,7.0,42,0.00,,,0.00,Weather View 32 v70,2013-01-13 23:58:00,
2013-01-13 16:08:00,53.0,30.5,30.13,NW,315,4.0,7.0,42,0.00,,,0.00,Weather View 32 v70,2013-01-14 00:08:00,
2013-01-13 16:13:00,52.0,29.6,30.13,East,90,0.0,7.0,42,0.00,,,0.00,Weather View 32 v70,2013-01-14 00:13:00,
2013-01-13 16:18:00,53.0,31.1,30.13,West,270,0.0,7.0,43,0.00,,,0.00,Weather View 32 v70,2013-01-14 00:18:00,
2013-01-13 16:23:00,53.0,31.6,30.13,NNW,337,0.0,7.0,44,0.00,,,0.00,Weather View 32 v70,2013-01-14 00:23:00,
2013-01-13 16:28:00,53.0,32.2,30.13,NW,315,0.0,7.0,45,0.00,,,0.00,Weather View 32 v70,2013-01-14 00:28:00,
2013-01-13 16:33:00,53.0,32.2,30.13,NW,315,0.0,7.0,45,0.00,,,0.00,Weather View 32 v70,2013-01-14 00:33:00,
2013-01-13 16:38:00,52.0,-46.0,30.14,West,270,0.0,6.0,1,0.00,,,0.00,Weather View 32 v70,2013-01-14 00:38:00,
2013-01-13 16:43:00,50.0,37.1,30.14,WNW,292,0.0,6.0,61,0.00,,,0.00,Weather View 32 v70,2013-01-14 00:43:00,
2013-01-13 16:47:00,50.0,37.1,30.14,WNW,292,0.0,6.0,61,0.00,,,0.00,Weather View 32 v70,2013-01-14 00:47:00,
2013-01-13 16:53:00,48.0,35.6,30.15,West,270,0.0,6.0,62,0.00,,,0.00,Weather View 32 v70,2013-01-14 00:53:00,
2013-01-13 16:58:00,47.0,34.6,30.15,WSW,247,0.0,6.0,62,0.00,,,0.00,Weather View 32 v70,2013-01-14 00:58:00,
2013-01-13 17:03:00,46.0,33.7,30.16,WNW,292,0.0,6.0,62,0.00,,,0.00,Weather View 32 v70,2013-01-14 01:03:00,
2013-01-13 17:08:00,46.0,33.7,30.17,NNW,337,0.0,6.0,62,0.00,,,0.00,Weather View 32 v70,2013-01-14 01:08:00,
2013-01-13 17:13:00,45.0,29.3,30.17,SW,225,0.0,5.0,54,0.00,,,0.00,Weather View 32 v70,2013-01-14 01:13:00,
2013-01-13 17:23:00,44.0,32.6,30.17,SW,225,0.0,5.0,64,0.00,,,0.00,Weather View 32 v70,2013-01-14 01:23:00,
2013-01-13 17:33:00,44.0,33.0,30.17,WSW,247,1.0,5.0,65,0.00,,,0.00,Weather View 32 v70,2013-01-14 01:33:00,
2013-01-13 17:43:00,44.0,33.7,30.17,SW,225,0.0,5.0,67,0.00,,,0.00,Weather View 32 v70,2013-01-14 01:43:00,
2013-01-13 17:48:00,44.0,33.7,30.17,SW,225,0.0,5.0,67,0.00,,,0.00,Weather View 32 v70,2013-01-14 01:48:00,
2013-01-13 17:53:00,44.0,34.5,30.17,NW,315,0.0,5.0,69,0.00,,,0.00,Weather View 32 v70,2013-01-14 01:53:00,
2013-01-13 17:58:00,44.0,34.8,30.17,WSW,247,0.0,4.0,70,0.00,,,0.00,Weather View 32 v70,2013-01-14 01:58:00,
2013-01-13 18:03:00,44.0,35.2,30.17,WSW,247,4.0,6.0,71,0.00,,,0.00,Weather View 32 v70,2013-01-14 02:03:00,
2013-01-13 18:08:00,44.0,35.5,30.17,WSW,247,2.0,6.0,72,0.00,,,0.00,Weather View 32 v70,2013-01-14 02:08:00,
2013-01-13 18:13:00,44.0,35.9,30.17,WSW,247,0.0,6.0,73,0.00,,,0.00,Weather View 32 v70,2013-01-14 02:13:00,
2013-01-13 18:18:00,44.0,36.2,30.17,WSW,247,0.0,7.0,74,0.00,,,0.00,Weather View 32 v70,2013-01-14 02:18:00,
2013-01-13 18:23:00,44.0,36.6,30.17,SW,225,0.0,7.0,75,0.00,,,0.00,Weather View 32 v70,2013-01-14 02:23:00,
2013-01-13 18:33:00,44.0,36.9,30.17,WNW,292,3.0,7.0,76,0.00,,,0.00,Weather View 32 v70,2013-01-14 02:33:00,
2013-01-13 18:37:00,44.0,37.2,30.17,WSW,247,0.0,7.0,77,0.00,,,0.00,Weather View 32 v70,2013-01-14 02:37:00,
2013-01-13 18:49:00,43.0,36.6,30.17,WNW,292,0.0,7.0,78,0.00,,,0.00,Weather View 32 v70,2013-01-14 02:49:00,
2013-01-13 18:54:00,43.0,36.9,30.17,WSW,247,0.0,7.0,79,0.00,,,0.00,Weather View 32 v70,2013-01-14 02:54:00,
2013-01-13 18:58:00,43.0,37.2,30.17,WNW,292,0.0,7.0,80,0.00,,,0.00,Weather View 32 v70,2013-01-14 02:58:00,
2013-01-13 19:03:00,43.0,36.9,30.17,WNW,292,0.0,7.0,79,0.00,,,0.00,Weather View 32 v70,2013-01-14 03:03:00,
2013-01-13 19:13:00,42.0,36.3,30.18,WNW,292,0.0,7.0,80,0.00,,,0.00,Weather View 32 v70,2013-01-14 03:13:00,
2013-01-13 19:18:00,42.0,36.0,30.18,WNW,292,0.0,6.0,79,0.00,,,0.00,Weather View 32 v70,2013-01-14 03:18:00,
2013-01-13 19:28:00,42.0,36.0,30.18,WSW,247,0.0,3.0,79,0.00,,,0.00,Weather View 32 v70,2013-01-14 03:28:00,
2013-01-13 19:33:00,42.0,36.3,30.18,WSW,247,0.0,3.0,80,0.00,,,0.00,Weather View 32 v70,2013-01-14 03:33:00,
2013-01-13 19:38:00,41.0,35.3,30.18,WSW,247,0.0,1.0,80,0.00,,,0.00,Weather View 32 v70,2013-01-14 03:38:00,
2013-01-13 19:43:00,41.0,35.3,30.18,WSW,247,0.0,1.0,80,0.00,,,0.00,Weather View 32 v70,2013-01-14 03:43:00,
2013-01-13 19:48:00,41.0,35.9,30.19,SW,225,0.0,1.0,82,0.00,,,0.00,Weather View 32 v70,2013-01-14 03:48:00,
2013-01-13 19:53:00,41.0,35.3,30.19,WSW,247,0.0,3.0,80,0.00,,,0.00,Weather View 32 v70,2013-01-14 03:53:00,
2013-01-13 19:58:00,41.0,35.3,30.18,WSW,247,0.0,3.0,80,0.00,,,0.00,Weather View 32 v70,2013-01-14 03:58:00,
2013-01-13 20:03:00,42.0,36.3,30.18,NNE,22,0.0,3.0,80,0.00,,,0.00,Weather View 32 v70,2013-01-14 04:03:00,
2013-01-13 20:08:00,41.0,35.3,30.18,NNE,22,0.0,3.0,80,0.00,,,0.00,Weather View 32 v70,2013-01-14 04:08:00,
2013-01-13 20:13:00,41.0,35.3,30.18,NNE,22,0.0,3.0,80,0.00,,,0.00,Weather View 32 v70,2013-01-14 04:13:00,
2013-01-13 20:18:00,41.0,35.3,30.19,WSW,247,0.0,3.0,80,0.00,,,0.00,Weather View 32 v70,2013-01-14 04:18:00,
2013-01-13 20:23:00,41.0,35.6,30.19,SW,225,0.0,3.0,81,0.00,,,0.00,Weather View 32 v70,2013-01-14 04:23:00,
2013-01-13 20:28:00,41.0,35.3,30.19,NW,315,0.0,3.0,80,0.00,,,0.00,Weather View 32 v70,2013-01-14 04:28:00,
2013-01-13 20:33:00,41.0,35.3,30.19,NW,315,0.0,3.0,80,0.00,,,0.00,Weather View 32 v70,2013-01-14 04:33:00,
2013-01-13 20:38:00,41.0,35.3,30.19,SW,225,0.0,3.0,80,0.00,,,0.00,Weather View 32 v70,2013-01-14 04:38:00,
2013-01-13 20:43:00,41.0,35.3,30.19,SW,225,0.0,3.0,80,0.00,,,0.00,Weather View 32 v70,2013-01-14 04:43:00,
2013-01-13 20:48:00,41.0,35.3,30.19,West,270,0.0,3.0,80,0.00,,,0.00,Weather View 32 v70,2013-01-14 04:48:00,
2013-01-13 20:53:00,41.0,35.3,30.19,NNE,22,0.0,4.0,80,0.00,,,0.00,Weather View 32 v70,2013-01-14 04:53:00,
2013-01-13 20:58:00,41.0,35.6,30.19,NNE,22,0.0,4.0,81,0.00,,,0.00,Weather View 32 v70,2013-01-14 04:58:00,
2013-01-13 21:03:00,41.0,35.3,30.19,NNW,337,0.0,4.0,80,0.00,,,0.00,Weather View 32 v70,2013-01-14 05:03:00,
2013-01-13 21:08:00,42.0,36.3,30.18,NW,315,3.0,6.0,80,0.00,,,0.00,Weather View 32 v70,2013-01-14 05:08:00,
2013-01-13 21:13:00,42.0,36.3,30.18,NW,315,0.0,6.0,80,0.00,,,0.00,Weather View 32 v70,2013-01-14 05:13:00,
2013-01-13 21:18:00,42.0,36.3,30.18,NNE,22,3.0,7.0,80,0.00,,,0.00,Weather View 32 v70,2013-01-14 05:18:00,
2013-01-13 21:23:00,42.0,36.3,30.18,WSW,247,0.0,7.0,80,0.00,,,0.00,Weather View 32 v70,2013-01-14 05:23:00,
2013-01-13 21:28:00,42.0,36.3,30.17,SW,225,0.0,7.0,80,0.00,,,0.00,Weather View 32 v70,2013-01-14 05:28:00,
2013-01-13 21:38:00,42.0,36.3,30.18,ENE,67,1.0,7.0,80,0.00,,,0.00,Weather View 32 v70,2013-01-14 05:38:00,
2013-01-13 21:43:00,43.0,37.2,30.17,NW,315,1.0,7.0,80,0.00,,,0.00,Weather View 32 v70,2013-01-14 05:43:00,
2013-01-13 21:48:00,43.0,37.2,30.17,ESE,112,0.0,7.0,80,0.00,,,0.00,Weather View 32 v70,2013-01-14 05:48:00,
2013-01-13 21:50:00,43.0,37.2,30.17,ESE,112,0.0,7.0,80,0.00,,,0.00,Weather View 32 v70,2013-01-14 05:50:00,
2013-01-13 21:53:00,43.0,37.2,30.17,WSW,247,3.0,7.0,80,0.00,,,0.00,Weather View 32 v70,2013-01-14 05:53:00,
2013-01-13 21:58:00,43.0,37.2,30.17,NW,315,0.0,7.0,80,0.00,,,0.00,Weather View 32 v70,2013-01-14 05:58:00,
2013-01-13 22:03:00,43.0,37.2,30.17,WSW,247,0.0,7.0,80,0.00,,,0.00,Weather View 32 v70,2013-01-14 06:03:00,
2013-01-13 22:08:00,43.0,37.2,30.18,NE,45,0.0,7.0,80,0.00,,,0.00,Weather View 32 v70,2013-01-14 06:08:00,
2013-01-13 22:13:00,42.0,36.3,30.18,NE,45,0.0,7.0,80,0.00,,,0.00,Weather View 32 v70,2013-01-14 06:13:00,
2013-01-13 22:18:00,42.0,36.3,30.19,ENE,67,0.0,7.0,80,0.00,,,0.00,Weather View 32 v70,2013-01-14 06:18:00,
2013-01-13 22:23:00,43.0,37.2,30.17,ENE,67,0.0,7.0,80,0.00,,,0.00,Weather View 32 v70,2013-01-14 06:23:00,
2013-01-13 22:28:00,43.0,37.2,30.17,NE,45,6.0,7.0,80,0.00,,,0.00,Weather View 32 v70,2013-01-14 06:28:00,
2013-01-13 22:33:00,43.0,37.2,30.17,SE,135,1.0,9.0,80,0.00,,,0.00,Weather View 32 v70,2013-01-14 06:33:00,
2013-01-13 22:38:00,43.0,37.2,30.17,WSW,247,0.0,9.0,80,0.00,,,0.00,Weather View 32 v70,2013-01-14 06:38:00,
2013-01-13 22:43:00,43.0,37.2,30.17,NNE,22,2.0,9.0,80,0.00,,,0.00,Weather View 32 v70,2013-01-14 06:43:00,
2013-01-13 22:45:00,43.0,37.2,30.17,WNW,292,0.0,9.0,80,0.00,,,0.00,Weather View 32 v70,2013-01-14 06:45:00,
2013-01-13 22:49:00,43.0,37.2,30.17,NNE,22,2.0,9.0,80,0.00,,,0.00,Weather View 32 v70,2013-01-14 06:49:00,
2013-01-13 22:51:00,43.0,37.2,30.17,NNE,22,2.0,9.0,80,0.00,,,0.00,Weather View 32 v70,2013-01-14 06:51:00,
2013-01-13 22:59:00,43.0,36.9,30.17,NE,45,6.0,9.0,79,0.00,,,0.00,Weather View 32 v70,2013-01-14 06:59:00,
2013-01-13 23:04:00,43.0,36.9,30.18,NNE,22,1.0,10.0,79,0.00,,,0.00,Weather View 32 v70,2013-01-14 07:04:00,
2013-01-13 23:09:00,44.0,38.2,30.18,NNE,22,0.0,16.0,80,0.00,,,0.00,Weather View 32 v70,2013-01-14 07:09:00,
2013-01-13 23:14:00,44.0,37.9,30.18,NE,45,7.0,16.0,79,0.00,,,0.00,Weather View 32 v70,2013-01-14 07:14:00,
2013-01-13 23:19:00,44.0,37.9,30.18,NE,45,7.0,16.0,79,0.00,,,0.00,Weather View 32 v70,2013-01-14 07:19:00,
2013-01-13 23:24:00,44.0,37.9,30.18,NNE,22,7.0,16.0,79,0.00,,,0.00,Weather View 32 v70,2013-01-14 07:24:00,
2013-01-13 23:28:00,44.0,37.9,30.18,NNE,22,0.0,16.0,79,0.00,,,0.00,Weather View 32 v70,2013-01-14 07:28:00,
2013-01-13 23:34:00,44.0,37.9,30.18,NE,45,7.0,16.0,79,0.00,,,0.00,Weather View 32 v70,2013-01-14 07:34:00,
2013-01-13 23:39:00,44.0,37.9,30.19,NNE,22,9.0,16.0,79,0.00,,,0.00,Weather View 32 v70,2013-01-14 07:39:00,
2013-01-13 23:44:00,44.0,37.9,30.19,NNE,22,6.0,16.0,79,0.00,,,0.00,Weather View 32 v70,2013-01-14 07:44:00,
2013-01-13 23:48:00,44.0,37.9,30.19,ENE,67,9.0,16.0,79,0.00,,,0.00,Weather View 32 v70,2013-01-14 07:48:00,
2013-01-13 23:52:00,44.0,37.9,30.19,ENE,67,9.0,16.0,79,0.00,,,0.00,Weather View 32 v70,2013-01-14 07:52:00,
2013-01-13 23:53:00,44.0,37.9,30.19,NE,45,7.0,16.0,79,0.00,,,0.00,Weather View 32 v70,2013-01-14 07:53:00,
2013-01-13 23:59:00,44.0,37.9,30.19,NE,45,2.0,16.0,79,0.00,,,0.00,Weather View 32 v70,2013-01-14 07:59:00,